www.pogodaiklimat.ru

Погода и климат >> Архив погоды >> Казахстан >> Улытау


ПОГОДА в Улытау

  • Прогноз погоды в Улытау
  • Монитор погоды в Улытау

АРХИВ ПОГОДЫ в Улытау

Время (UTC), дата Ветер
(напр.,м/с)
 
Видим.   Явления Облачность Т
(С)
Тd
(С)
f
(%)
Тe
(С)
Тes
(С)
Комфортность P
(гПа)
Po
(гПа)
Тmin
(С)
Tmax
(С)
R
(мм)
R24
(мм)
S
(см)
12 16.07 СЗ 6 20 км ясно +31.9 +8.0 23 +31 +33 жарко 1002.0 934.5
18 16.07 С 6 20 км ясно +23.5 +7.0 35 +24 +24 комфорт 1005.6 936.0 +32.1
00 17.07 С 3 20 км ясно +17.6 +9.2 58 +18 +18 1008.3 937.2
03 17.07 СВ 4 20 км ясно +21.8 +10.2 48 +24 +27 комфорт 1007.9 937.8
06 17.07 СВ 5 20 км ясно +26.1 +8.5 33 +26 +35 жарко 1006.9 937.8 +17.4
12 17.07 СВ 5 20 км ясно +31.1 +1.7 15 +28 +31 жарко 1005.7 937.7
18 17.07 СВ 5 20 км ясно +22.9 +4.0 29 +23 +23 комфорт 1008.6 938.6 +31.3
00 18.07 штиль 0 20 км ясно +17.5 +7.5 52 +18 +18 1010.2 938.9
03 18.07 штиль 0 20 км ясно +22.7 +9.1 42 +24 +32 комфорт 1009.3 939.3
06 18.07 В 3 20 км ясно +27.4 +8.7 31 +27 +40 жарко 1007.8 938.9 +17.3
12 18.07 В 3 20 км 8/0
[Ci sp]
+31.7 +2.3 15 +29 +33 жарко 1006.2 938.2
18 18.07 штиль 0 20 км ясно +22.6 +5.6 33 +23 +23 комфорт 1009.7 939.6 +32.3
00 19.07 штиль 0 20 км 3/0
[Ci fib]
+18.9 +6.2 43 +19 +19 1010.5 939.5
03 19.07 В 4 20 км ясно +24.1 +7.4 34 +24 +28 комфорт 1009.9 940.1
06 19.07 В 7 20 км ясно +28.7 +4.0 21 +27 +31 жарко 1008.9 940.2 +18.2
12 19.07 В 6 20 км ясно +31.2 +4.4 18 +29 +31 жарко 1007.5 939.4
18 19.07 СВ 3 20 км ясно +23.0 +6.2 34 +24 +24 комфорт 1010.7 940.6 +31.4
00 20.07 штиль 0 20 км ясно +18.5 +7.6 49 +19 +19 1011.5 940.3
03 20.07 ЮВ 3 20 км 1/0
[Ci fib]
+24.5 +9.0 37 +25 +30 комфорт 1010.6 940.8
06 20.07 В 4 20 км 1/1 600 м
[Sc]
+30.8 +7.6 23 +30 +39 жарко 1009.0 940.8 +18.3
12 20.07 штиль 0 20 км 3/1 600 м
[Cu hum Ci fib]
+33.8 +7.1 19 +32 +38 жарко 1006.7 939.2
18 20.07 Ю 5 20 км 1/1 600 м
[Sc]
+25.7 +7.8 32 +26 +26 жарко 1008.6 939.2 +34.2
00 21.07 ЮЗ 3 20 км 10/9 600 м
[Sc Ci fib]
+22.1 +9.0 43 +23 +23 комфорт 1008.1 938.0
03 21.07 Ю 3 20 км 8/4 600 м
[Sc Ci fib]
+24.6 +6.6 32 +25 +27 комфорт 1007.2 937.7
06 21.07 Ю 6 20 км 8/0
[Ci sp]
+31.2 +6.6 21 +30 +35 жарко 1004.1 936.3 +22.0
12 21.07 ЮЗ 5 20 км 4/4 600 м
[Cu med, cong]
+34.0 +8.7 21 +33 +34 жарко 1000.2 933.2
18 21.07 СЗ 6 20 км ясно +25.0 +11.7 43 +26 +26 жарко 1003.5 934.5 +35.5
00 22.07 СЗ 5 20 км ясно +16.9 +11.2 69 +16 +16 1006.3 935.2
03 22.07 С 7 20 км ясно +18.3 +9.9 58 +18 +19 1007.5 936.6
06 22.07 С 8 20 км ясно +23.7 +8.4 38 +24 +27 комфорт 1007.2 937.5 +16.7
12 22.07 СЗ 7 20 км ясно +27.1 +6.3 27 +26 +28 жарко 1006.9 938.0
18 22.07 С 2 20 км ясно +22.2 +5.8 34 +23 +23 комфорт 1008.6 938.4 +27.3
00 23.07 штиль 0 20 км 8/8 600 м
[Sc Ci sp]
+18.0 +6.7 48 +18 +18 1009.1 938.0
03 23.07 ЮЗ 2 20 км 10/8 600 м
[Sc Ci sp]
+23.2 +7.4 36 +24 +25 комфорт 1007.5 937.7
06 23.07 З 5 20 км 10/6 600 м
[Cb cap Ac und]
+24.7 +5.1 28 +24 +25 комфорт 1006.3 936.8 +17.6

 

Местоположение метеостанции Улытау (Карагандинская область, Казахстан): широта 48.66 долгота 67.00 высота над уровнем моря 350 м.

В архиве по умолчанию представлена погода в Улытау за последнюю неделю. Архивные данные за месяц целиком и за предыдущие месяцы, начиная с января 2011 года, Вы можете получить, выбрав интересующий диапазон дат из раскрывающегося списка и нажав кнопку "Ввод!".


*Определитесь, кто Вы:
робот инопланетянин человек

Внимание! Время в таблицах - всемирное. Для получения местного времени необходимо прибавить поправку, которая равна 5 ч.

Смотрите также архив погоды в соседних городах и на ближайших метеорологических станциях:

Погода в Карсакбае (Карагандинская область, Казахстан) (93 км)
Погода в Жезказган (Карагандинская область, Казахстан) (110 км)
Погода в Шубарколе (Карагандинская область, Казахстан) (136 км)
Погода в Экидыне (Костанайская область, Казахстан) (136 км)
Погода в Аркалыке (Костанайская область, Казахстан) (174 км)
Погода в Кызылжаре (Карагандинская область, Казахстан) (199 км)
Погода в Амангельды (Костанайская область, Казахстан) (208 км)
Погода в Старом Баршино (Карагандинская область, Казахстан) (216 км)
Погода в Тасты-Талды (Акмолинская область, Казахстан) (231 км)
Погода в Кульжамбае (Карагандинская область, Казахстан) (236 км)

Пояснения к столбцам:

Ветер - указаны скорость ветра в м/с - средняя за 10 мин, порывы в срок и между сроками (в фигурных скобках) и направление, откуда дует ветер: С - северный, СВ - северо-восточный, В - восточный, ЮВ - юго-восточный, Ю - южный, ЮЗ - юго-западный, З - западный, СЗ - северо-западный.
Видимость - горизонтальная дальность видимости в метрах или километрах. При видимости от 1 до 10 км при отсутствии осадков обычно наблюдается дымка, при ухудшении видимости до 1 км и менее - туман. В сухую погоду видимость может ухудшаться дымом, пылью или мглою.
Явления - указаны атмосферные явления, наблюдавшиеся в срок или в последний час перед сроком; фигурными скобками обозначены явления, наблюдавшиеся между сроками (за 1-3 часа до срока); квадратными скобками обозначены град или гололедные отложения с указанием их диаметра в мм.
Облачность - указаны через наклонную черту общая и нижняя облачность в баллах и высота нижней границы облаков в метрах; квадратными скобками обозначены формы облаков: Ci - перистые, Cs - перисто-слоистые, Cc - перисто-кучевые, Ac - высококучевые, As - высокослоистые, Sc - слоисто-кучевые, Ns - слоисто-дождевые, Cu - кучевые, Cb - кучево-дождевые. Подробнее классификацию облаков см. в Атласе облаков (PDF).
T - Температура воздуха - температура, измеренная на высоте 2 м над землей.
Td - Температура точки росы - температура, при понижении до которой содержащийся в воздухе водяной пар достигнет насыщения.
f - Относительная влажность воздуха - влажноcть воздуха, измеренная на высоте 2 м над землей.
Te - Эффективная температура - температура, которую ощущает одетый по сезону человек в тени. Характеристика душности погоды. При расчете учитывается влияние влажности воздуха и скорости ветра на теплоощущения человека.
Tes - Эффективная температура на солнце - температура, которую ощущает человек, с поправкой на солнечный нагрев. Характеристика знойности погоды. Зависит от высоты солнца над горизонтом, облачности и скорости ветра. Ночью, в пасмурную погоду, а также при ветре 12 м/с и более поправка равна нулю.
P - Атмосферное давление - приведенное к уровню моря атмосферное давление.
Po - Атмосферное давление - измеренное на уровне метеостанции атмосферное давление.
Tmin - Минимальная температура - минимум температуры воздуха на высоте 2 м над землей.
Tmax - Максимальная температура - максимум температуры воздуха на высоте 2 м над землей.
R - Количество осадков - Количество выпавших осадков за период времени, мм. При наведении курсора мыши на число - период времени, за который выпало указанное количество осадков.
R24 - Количество осадков - Количество выпавших осадков за 24 часа, мм.
S - Снежный покров - Высота снежного покрова, см. При наведении курсора мыши на число - состояние снежного покрова и степень покрытия местности в баллах.